User: anonymous   Login
Location: Bushey
(51.6333°N, 0.3667°W)
Time: 20:26:11
(UTC+00:00)
Language:

Cosmos 1000 Rocket - Orbit

View from above orbital plane
View from above orbital plane
View from above satellite
View from above satellite

Ground track
Ground track

The orbit data is extracted from the following two-line orbital elements,

1 10777U 78034B   21136.73727266  .00000035  00000-0  19113-4 0  9994
2 10777  82.9439 247.2450 0026934 151.3534 318.8930 13.77438500167160
Epoch (UTC): 16 May 2021 17:41:40
Eccentricity: 0.0026934
inclination: 82.9439°
perigee height: 953 km
apogee height: 993 km
right ascension of ascending node: 247.2450°
argument of perigee: 151.3534°
revolutions per day: 13.77438500
mean anomaly at epoch: 318.8930°
orbit number at epoch: 16716

The dashed part of the orbit path shows where the satellite is in the earth's shadow,  

DLR